Time,TemperatureF,DewpointF,PressureIn,WindDirection,WindDirectionDegrees,WindSpeedMPH,WindSpeedGustMPH,Humidity,HourlyPrecipIn,Conditions,Clouds,dailyrainin,SoftwareType,DateUTC
2013-03-03 00:01:00,34.0,22.7,29.30,NW,315,0.0,0.0,63,0.00,CLR,,0.00,WeatherDisplay:10.37,2013-03-03 07:01:00,
2013-03-03 00:06:00,34.0,22.7,29.30,WNW,292,0.0,0.0,63,0.00,CLR,,0.00,WeatherDisplay:10.37,2013-03-03 07:06:00,
2013-03-03 00:11:00,34.2,23.2,29.31,NNW,338,0.0,0.0,64,0.00,CLR,,0.00,WeatherDisplay:10.37,2013-03-03 07:11:00,
2013-03-03 00:16:00,34.2,23.2,29.31,NNW,338,0.0,0.0,64,0.00,CLR,,0.00,WeatherDisplay:10.37,2013-03-03 07:16:00,
2013-03-03 00:21:00,34.3,23.4,29.31,North,0,0.0,0.0,64,0.00,CLR,,0.00,WeatherDisplay:10.37,2013-03-03 07:21:00,
2013-03-03 00:26:00,34.7,23.8,29.31,NNW,338,0.0,0.0,64,0.00,CLR,,0.00,WeatherDisplay:10.37,2013-03-03 07:26:00,
2013-03-03 00:31:00,34.7,23.8,29.30,NNW,338,0.0,0.0,64,0.00,CLR,,0.00,WeatherDisplay:10.37,2013-03-03 07:31:00,
2013-03-03 00:36:00,34.7,23.8,29.30,NW,315,0.0,0.0,64,0.00,CLR,,0.00,WeatherDisplay:10.37,2013-03-03 07:36:00,
2013-03-03 00:42:00,34.9,23.9,29.30,NW,315,0.0,0.0,64,0.00,CLR,,0.00,WeatherDisplay:10.37,2013-03-03 07:42:00,
2013-03-03 00:47:00,34.9,23.9,29.30,NE,45,0.0,0.0,64,0.00,CLR,,0.00,WeatherDisplay:10.37,2013-03-03 07:47:00,
2013-03-03 00:52:00,34.9,23.9,29.29,NE,45,0.0,0.0,64,0.00,CLR,,0.00,WeatherDisplay:10.37,2013-03-03 07:52:00,
2013-03-03 00:57:00,35.1,24.1,29.29,NE,45,0.0,0.0,64,0.00,CLR,,0.00,WeatherDisplay:10.37,2013-03-03 07:57:00,
2013-03-03 01:02:00,35.1,24.1,29.29,NW,315,0.0,0.0,64,0.00,CLR,,0.00,WeatherDisplay:10.37,2013-03-03 08:02:00,
2013-03-03 01:07:00,35.4,24.4,29.29,ENE,68,0.0,0.0,64,0.00,CLR,,0.00,WeatherDisplay:10.37,2013-03-03 08:07:00,
2013-03-03 01:12:00,35.2,24.3,29.29,NW,315,0.0,0.0,64,0.00,CLR,,0.00,WeatherDisplay:10.37,2013-03-03 08:12:00,
2013-03-03 01:17:00,35.4,24.4,29.29,NW,315,0.0,0.0,64,0.00,CLR,,0.00,WeatherDisplay:10.37,2013-03-03 08:17:00,
2013-03-03 01:22:00,35.6,24.6,29.29,NNW,338,0.0,0.0,64,0.00,CLR,,0.00,WeatherDisplay:10.37,2013-03-03 08:22:00,
2013-03-03 01:27:00,35.6,24.6,29.29,NNW,338,0.0,0.0,64,0.00,CLR,,0.00,WeatherDisplay:10.37,2013-03-03 08:27:00,
2013-03-03 01:32:00,35.6,24.6,29.28,NNW,338,0.0,0.0,64,0.00,CLR,,0.00,WeatherDisplay:10.37,2013-03-03 08:32:00,
2013-03-03 01:37:00,35.8,24.8,29.28,NNW,338,0.0,0.0,64,0.00,CLR,,0.00,WeatherDisplay:10.37,2013-03-03 08:37:00,
2013-03-03 01:42:00,35.8,24.8,29.28,NNW,338,0.0,0.0,64,0.00,CLR,,0.00,WeatherDisplay:10.37,2013-03-03 08:42:00,
2013-03-03 01:47:00,35.8,25.2,29.28,South,180,0.0,0.0,65,0.00,CLR,,0.00,WeatherDisplay:10.37,2013-03-03 08:47:00,
2013-03-03 01:52:00,36.0,25.3,29.27,NNE,22,0.0,0.0,65,0.00,CLR,,0.00,WeatherDisplay:10.37,2013-03-03 08:52:00,
2013-03-03 01:57:00,36.1,25.5,29.27,North,0,0.0,0.0,65,0.00,CLR,,0.00,WeatherDisplay:10.37,2013-03-03 08:57:00,
2013-03-03 02:02:00,36.1,25.5,29.27,North,0,0.0,0.0,65,0.00,CLR,,0.00,WeatherDisplay:10.37,2013-03-03 09:02:00,
2013-03-03 02:07:00,36.1,25.5,29.27,NE,45,0.0,0.0,65,0.00,CLR,,0.00,WeatherDisplay:10.37,2013-03-03 09:07:00,
2013-03-03 02:12:00,36.1,25.5,29.28,NNE,22,0.0,0.0,65,0.00,CLR,,0.00,WeatherDisplay:10.37,2013-03-03 09:12:00,
2013-03-03 02:17:00,36.1,25.5,29.28,NW,315,0.0,0.0,65,0.00,CLR,,0.00,WeatherDisplay:10.37,2013-03-03 09:17:00,
2013-03-03 02:22:00,36.3,25.7,29.28,North,0,0.0,0.0,65,0.00,CLR,,0.00,WeatherDisplay:10.37,2013-03-03 09:22:00,
2013-03-03 02:27:00,36.3,25.7,29.28,ENE,68,0.0,0.0,65,0.00,CLR,,0.00,WeatherDisplay:10.37,2013-03-03 09:27:00,
2013-03-03 02:32:00,36.5,25.8,29.27,NNW,338,0.0,0.0,65,0.00,CLR,,0.00,WeatherDisplay:10.37,2013-03-03 09:32:00,
2013-03-03 02:37:00,36.3,25.7,29.27,NNW,338,0.0,0.0,65,0.00,CLR,,0.00,WeatherDisplay:10.37,2013-03-03 09:37:00,
2013-03-03 02:42:00,36.5,25.8,29.27,NNW,338,0.0,0.0,65,0.00,CLR,,0.00,WeatherDisplay:10.37,2013-03-03 09:42:00,
2013-03-03 02:47:00,36.5,25.8,29.27,ENE,68,0.0,0.0,65,0.00,CLR,,0.00,WeatherDisplay:10.37,2013-03-03 09:47:00,
2013-03-03 02:52:00,36.5,25.8,29.26,ENE,68,0.0,0.0,65,0.00,CLR,,0.00,WeatherDisplay:10.37,2013-03-03 09:52:00,
2013-03-03 02:57:00,36.7,26.0,29.26,North,0,0.0,0.0,65,0.00,CLR,,0.00,WeatherDisplay:10.37,2013-03-03 09:57:00,
2013-03-03 03:02:00,36.9,26.2,29.26,NW,315,0.0,0.0,65,0.00,CLR,,0.00,WeatherDisplay:10.37,2013-03-03 10:02:00,
2013-03-03 03:07:00,36.9,26.2,29.26,North,0,0.0,0.0,65,0.00,CLR,,0.00,WeatherDisplay:10.37,2013-03-03 10:07:00,
2013-03-03 03:12:00,36.9,26.2,29.25,NNW,338,0.0,0.2,65,0.00,CLR,,0.00,WeatherDisplay:10.37,2013-03-03 10:12:00,
2013-03-03 03:17:00,36.9,26.2,29.25,NE,45,0.0,0.2,65,0.00,CLR,,0.00,WeatherDisplay:10.37,2013-03-03 10:17:00,
2013-03-03 03:22:00,36.9,26.2,29.25,NE,45,0.0,0.0,65,0.00,CLR,,0.00,WeatherDisplay:10.37,2013-03-03 10:22:00,
2013-03-03 03:27:00,36.9,26.2,29.24,East,90,0.0,0.0,65,0.00,CLR,,0.00,WeatherDisplay:10.37,2013-03-03 10:27:00,
2013-03-03 03:32:00,36.9,26.2,29.24,North,0,0.0,0.0,65,0.00,CLR,,0.00,WeatherDisplay:10.37,2013-03-03 10:32:00,
2013-03-03 03:37:00,37.0,26.4,29.24,North,0,0.0,0.0,65,0.00,CLR,,0.00,WeatherDisplay:10.37,2013-03-03 10:37:00,
2013-03-03 03:42:00,36.9,26.2,29.24,NW,315,0.0,0.0,65,0.00,CLR,,0.00,WeatherDisplay:10.37,2013-03-03 10:42:00,
2013-03-03 03:47:00,37.0,26.7,29.25,North,0,0.0,0.0,66,0.00,CLR,,0.00,WeatherDisplay:10.37,2013-03-03 10:47:00,
2013-03-03 03:52:00,37.0,26.7,29.25,NE,45,0.0,0.0,66,0.00,CLR,,0.00,WeatherDisplay:10.37,2013-03-03 10:52:00,
2013-03-03 03:57:00,37.2,26.9,29.25,NNW,338,0.0,0.0,66,0.00,CLR,,0.00,WeatherDisplay:10.37,2013-03-03 10:57:00,
2013-03-03 04:02:00,37.0,26.7,29.25,North,0,0.0,0.0,66,0.00,CLR,,0.00,WeatherDisplay:10.37,2013-03-03 11:02:00,
2013-03-03 04:07:00,37.0,26.7,29.24,NNW,338,0.0,0.0,66,0.00,CLR,,0.00,WeatherDisplay:10.37,2013-03-03 11:07:00,
2013-03-03 04:12:00,37.0,26.7,29.24,NE,45,0.0,0.0,66,0.00,CLR,,0.00,WeatherDisplay:10.37,2013-03-03 11:12:00,
2013-03-03 04:17:00,37.2,26.9,29.24,NNW,338,0.0,0.0,66,0.00,CLR,,0.00,WeatherDisplay:10.37,2013-03-03 11:17:00,
2013-03-03 04:22:00,37.2,26.9,29.24,NNW,338,0.0,0.0,66,0.00,CLR,,0.00,WeatherDisplay:10.37,2013-03-03 11:22:00,
2013-03-03 04:27:00,37.2,27.3,29.23,NNW,338,0.0,0.0,67,0.00,CLR,,0.00,WeatherDisplay:10.37,2013-03-03 11:27:00,
2013-03-03 04:32:00,37.2,27.3,29.23,NNE,22,0.0,0.0,67,0.00,CLR,,0.00,WeatherDisplay:10.37,2013-03-03 11:32:00,
2013-03-03 04:37:00,37.2,27.3,29.23,North,0,0.0,0.0,67,0.00,CLR,,0.00,WeatherDisplay:10.37,2013-03-03 11:37:00,
2013-03-03 04:42:00,37.2,27.6,29.23,NW,315,0.0,0.0,68,0.00,CLR,,0.00,WeatherDisplay:10.37,2013-03-03 11:42:00,
2013-03-03 04:47:00,37.2,27.6,29.23,NNW,338,0.0,0.0,68,0.00,CLR,,0.00,WeatherDisplay:10.37,2013-03-03 11:47:00,
2013-03-03 04:52:00,37.2,27.6,29.23,WSW,248,0.0,0.0,68,0.00,CLR,,0.00,WeatherDisplay:10.37,2013-03-03 11:52:00,
2013-03-03 04:57:00,37.0,27.5,29.23,NNE,22,0.0,0.0,68,0.00,CLR,,0.00,WeatherDisplay:10.37,2013-03-03 11:57:00,
2013-03-03 05:02:00,37.2,27.6,29.23,West,270,0.0,0.0,68,0.00,CLR,,0.00,WeatherDisplay:10.37,2013-03-03 12:02:00,
2013-03-03 05:07:00,37.0,27.5,29.22,ESE,112,0.0,0.0,68,0.00,CLR,,0.00,WeatherDisplay:10.37,2013-03-03 12:07:00,
2013-03-03 05:12:00,37.0,27.5,29.22,SE,135,0.0,0.0,68,0.00,CLR,,0.00,WeatherDisplay:10.37,2013-03-03 12:12:00,
2013-03-03 05:17:00,37.0,27.8,29.22,SE,135,0.0,0.0,69,0.00,CLR,,0.00,WeatherDisplay:10.37,2013-03-03 12:17:00,
2013-03-03 05:22:00,37.0,27.8,29.22,North,0,0.0,0.0,69,0.00,CLR,,0.00,WeatherDisplay:10.37,2013-03-03 12:22:00,
2013-03-03 05:27:00,37.0,27.8,29.23,NNW,338,0.0,0.0,69,0.00,CLR,,0.00,WeatherDisplay:10.37,2013-03-03 12:27:00,
2013-03-03 05:32:00,37.0,27.8,29.23,NNE,22,0.0,0.0,69,0.00,CLR,,0.00,WeatherDisplay:10.37,2013-03-03 12:32:00,
2013-03-03 05:37:00,37.0,27.8,29.23,North,0,0.0,0.0,69,0.00,CLR,,0.00,WeatherDisplay:10.37,2013-03-03 12:37:00,
2013-03-03 05:42:00,37.0,27.8,29.23,East,90,0.0,0.0,69,0.00,CLR,,0.00,WeatherDisplay:10.37,2013-03-03 12:42:00,
2013-03-03 05:48:00,37.0,27.8,29.21,NW,315,0.0,0.0,69,0.00,CLR,,0.00,WeatherDisplay:10.37,2013-03-03 12:48:00,
2013-03-03 05:53:00,37.0,27.8,29.21,NW,315,0.0,0.0,69,0.00,CLR,,0.00,WeatherDisplay:10.37,2013-03-03 12:53:00,
2013-03-03 05:58:00,37.0,28.2,29.21,NE,45,0.0,0.0,70,0.00,CLR,,0.00,WeatherDisplay:10.37,2013-03-03 12:58:00,
2013-03-03 06:03:00,37.0,28.2,29.21,NW,315,0.0,0.0,70,0.00,CLR,,0.00,WeatherDisplay:10.37,2013-03-03 13:03:00,
2013-03-03 06:08:00,37.0,28.2,29.20,NNW,338,0.0,0.0,70,0.00,CLR,,0.00,WeatherDisplay:10.37,2013-03-03 13:08:00,
2013-03-03 06:13:00,36.9,28.0,29.20,NNW,338,0.0,0.0,70,0.00,CLR,,0.00,WeatherDisplay:10.37,2013-03-03 13:13:00,
2013-03-03 06:18:00,36.9,28.0,29.20,NNE,22,0.0,0.0,70,0.00,CLR,,0.00,WeatherDisplay:10.37,2013-03-03 13:18:00,
2013-03-03 06:23:00,36.9,28.0,29.20,East,90,0.0,0.0,70,0.00,CLR,,0.00,WeatherDisplay:10.37,2013-03-03 13:23:00,
2013-03-03 06:28:00,36.7,27.8,29.20,SSE,158,0.0,0.0,70,0.00,CLR,,0.00,WeatherDisplay:10.37,2013-03-03 13:28:00,
2013-03-03 06:33:00,36.9,28.0,29.20,North,0,0.0,0.0,70,0.00,CLR,,0.00,WeatherDisplay:10.37,2013-03-03 13:33:00,
2013-03-03 06:38:00,36.9,28.0,29.20,ENE,68,0.0,0.0,70,0.00,CLR,,0.00,WeatherDisplay:10.37,2013-03-03 13:38:00,
2013-03-03 06:43:00,36.9,28.0,29.20,WNW,292,0.0,0.0,70,0.00,CLR,,0.00,WeatherDisplay:10.37,2013-03-03 13:43:00,
2013-03-03 06:48:00,36.7,27.8,29.20,North,0,0.0,0.0,70,0.00,CLR,,0.00,WeatherDisplay:10.37,2013-03-03 13:48:00,
2013-03-03 06:53:00,36.5,27.6,29.20,ESE,112,0.0,0.0,70,0.00,CLR,,0.00,WeatherDisplay:10.37,2013-03-03 13:53:00,
2013-03-03 06:58:00,36.5,27.6,29.20,NW,315,0.0,0.0,70,0.00,CLR,,0.00,WeatherDisplay:10.37,2013-03-03 13:58:00,
2013-03-03 07:03:00,36.5,27.6,29.20,NE,45,0.0,0.0,70,0.00,CLR,,0.00,WeatherDisplay:10.37,2013-03-03 14:03:00,
2013-03-03 07:08:00,36.5,27.6,29.19,SW,225,0.0,0.0,70,0.00,CLR,,0.00,WeatherDisplay:10.37,2013-03-03 14:08:00,
2013-03-03 07:13:00,36.5,27.6,29.19,NNW,338,0.0,0.0,70,0.00,CLR,,0.00,WeatherDisplay:10.37,2013-03-03 14:13:00,
2013-03-03 07:18:00,36.9,28.3,29.19,NNW,338,0.0,0.0,71,0.00,CLR,,0.00,WeatherDisplay:10.37,2013-03-03 14:18:00,
2013-03-03 07:23:00,36.7,28.2,29.19,North,0,0.0,0.0,71,0.00,CLR,,0.00,WeatherDisplay:10.37,2013-03-03 14:23:00,
2013-03-03 07:28:00,36.7,28.2,29.19,NW,315,0.0,0.0,71,0.00,CLR,,0.00,WeatherDisplay:10.37,2013-03-03 14:28:00,
2013-03-03 07:33:00,36.9,28.3,29.19,North,0,0.0,0.0,71,0.00,CLR,,0.00,WeatherDisplay:10.37,2013-03-03 14:33:00,
2013-03-03 07:38:00,36.9,28.3,29.19,NNW,338,0.0,0.0,71,0.00,CLR,,0.00,WeatherDisplay:10.37,2013-03-03 14:38:00,
2013-03-03 07:43:00,36.9,28.3,29.19,NW,315,0.0,0.0,71,0.00,CLR,,0.00,WeatherDisplay:10.37,2013-03-03 14:43:00,
2013-03-03 07:48:00,37.0,28.5,29.18,NNW,338,0.0,0.0,71,0.00,CLR,,0.00,WeatherDisplay:10.37,2013-03-03 14:48:00,
2013-03-03 07:53:00,37.2,28.7,29.18,ENE,68,0.0,0.0,71,0.00,CLR,,0.00,WeatherDisplay:10.37,2013-03-03 14:53:00,
2013-03-03 07:58:00,37.6,29.0,29.18,West,270,0.0,0.0,71,0.00,CLR,,0.00,WeatherDisplay:10.37,2013-03-03 14:58:00,
2013-03-03 08:03:00,37.8,29.2,29.18,East,90,0.0,0.0,71,0.00,CLR,,0.00,WeatherDisplay:10.37,2013-03-03 15:03:00,
2013-03-03 08:08:00,38.3,30.1,29.16,WSW,248,0.0,0.0,72,0.00,CLR,,0.00,WeatherDisplay:10.37,2013-03-03 15:08:00,
2013-03-03 08:13:00,38.3,29.7,29.16,WSW,248,0.0,0.0,71,0.00,CLR,,0.00,WeatherDisplay:10.37,2013-03-03 15:13:00,
2013-03-03 08:18:00,38.5,29.9,29.16,SE,135,1.1,1.1,71,0.00,CLR,,0.00,WeatherDisplay:10.37,2013-03-03 15:18:00,
2013-03-03 08:23:00,38.7,30.4,29.16,WSW,248,0.0,0.1,72,0.00,CLR,,0.00,WeatherDisplay:10.37,2013-03-03 15:23:00,
2013-03-03 08:28:00,39.0,30.4,29.15,NNW,338,0.0,0.1,71,0.00,CLR,,0.00,WeatherDisplay:10.37,2013-03-03 15:28:00,
2013-03-03 08:33:00,39.0,30.4,29.15,North,0,0.0,0.0,71,0.00,CLR,,0.00,WeatherDisplay:10.37,2013-03-03 15:33:00,
2013-03-03 08:38:00,39.4,30.8,29.15,ENE,68,0.0,0.0,71,0.00,CLR,,0.00,WeatherDisplay:10.37,2013-03-03 15:38:00,
2013-03-03 08:43:00,39.7,31.1,29.15,NE,45,0.0,0.0,71,0.00,CLR,,0.00,WeatherDisplay:10.37,2013-03-03 15:43:00,
2013-03-03 08:48:00,40.1,31.4,29.15,East,90,0.0,0.0,71,0.00,CLR,,0.00,WeatherDisplay:10.37,2013-03-03 15:48:00,
2013-03-03 08:53:00,40.5,31.8,29.15,SE,135,0.0,0.0,71,0.00,CLR,,0.00,WeatherDisplay:10.37,2013-03-03 15:53:00,
2013-03-03 08:58:00,40.8,32.1,29.15,East,90,0.0,0.0,71,0.00,CLR,,0.00,WeatherDisplay:10.37,2013-03-03 15:58:00,
2013-03-03 09:03:00,41.4,32.7,29.15,North,0,0.0,0.0,71,0.00,CLR,,0.00,WeatherDisplay:10.37,2013-03-03 16:03:00,
2013-03-03 09:08:00,41.5,32.8,29.15,North,0,0.0,0.0,71,0.00,CLR,,0.00,WeatherDisplay:10.37,2013-03-03 16:08:00,
2013-03-03 09:13:00,42.1,33.0,29.15,NNE,22,0.0,0.0,70,0.00,CLR,,0.00,WeatherDisplay:10.37,2013-03-03 16:13:00,
2013-03-03 09:18:00,42.6,33.2,29.15,North,0,0.0,0.0,69,0.00,CLR,,0.00,WeatherDisplay:10.37,2013-03-03 16:18:00,
2013-03-03 09:23:00,43.0,33.1,29.15,North,0,0.0,0.0,68,0.00,CLR,,0.00,WeatherDisplay:10.37,2013-03-03 16:23:00,
2013-03-03 09:28:00,43.3,33.1,29.13,East,90,0.0,0.0,67,0.00,CLR,,0.00,WeatherDisplay:10.37,2013-03-03 16:28:00,
2013-03-03 09:33:00,43.7,33.1,29.13,SE,135,0.0,0.0,66,0.00,CLR,,0.00,WeatherDisplay:10.37,2013-03-03 16:33:00,
2013-03-03 09:38:00,44.1,33.0,29.13,WSW,248,0.0,0.0,65,0.00,CLR,,0.00,WeatherDisplay:10.37,2013-03-03 16:38:00,
2013-03-03 09:43:00,44.1,32.7,29.13,West,270,1.1,0.0,64,0.00,CLR,,0.00,WeatherDisplay:10.37,2013-03-03 16:43:00,
2013-03-03 09:48:00,44.1,32.3,29.14,SW,225,9.2,9.2,63,0.00,CLR,,0.00,WeatherDisplay:10.37,2013-03-03 16:48:00,
2013-03-03 09:53:00,42.8,30.3,29.14,SSW,202,5.8,5.8,61,0.00,CLR,,0.00,WeatherDisplay:10.37,2013-03-03 16:53:00,
2013-03-03 09:58:00,41.9,29.8,29.14,South,180,2.3,4.5,62,0.00,CLR,,0.00,WeatherDisplay:10.37,2013-03-03 16:58:00,
2013-03-03 10:03:00,40.3,30.6,29.14,ESE,112,1.1,3.7,68,0.00,CLR,,0.00,WeatherDisplay:10.37,2013-03-03 17:03:00,
2013-03-03 10:09:00,39.2,30.6,29.15,SSW,202,2.3,2.9,71,0.00,CLR,,0.00,WeatherDisplay:10.37,2013-03-03 17:09:00,
2013-03-03 10:14:00,38.5,30.2,29.15,West,270,2.3,2.3,72,0.00,CLR,,0.00,WeatherDisplay:10.37,2013-03-03 17:14:00,
2013-03-03 10:19:00,37.9,29.7,29.15,SW,225,2.3,2.3,72,0.00,CLR,,0.00,WeatherDisplay:10.37,2013-03-03 17:19:00,
2013-03-03 10:24:00,37.8,28.9,29.15,SE,135,5.8,5.8,70,0.00,CLR,,0.00,WeatherDisplay:10.37,2013-03-03 17:24:00,
2013-03-03 10:29:00,37.6,28.3,29.17,SSW,202,0.0,2.0,69,0.00,CLR,,0.00,WeatherDisplay:10.37,2013-03-03 17:29:00,
2013-03-03 10:34:00,37.6,28.0,29.17,South,180,3.5,3.5,68,0.00,CLR,,0.00,WeatherDisplay:10.37,2013-03-03 17:34:00,
2013-03-03 10:39:00,37.2,27.3,29.17,WSW,248,1.1,1.1,67,0.00,CLR,,0.00,WeatherDisplay:10.37,2013-03-03 17:39:00,
2013-03-03 10:44:00,37.2,27.3,29.17,SSW,202,2.3,2.3,67,0.00,CLR,,0.00,WeatherDisplay:10.37,2013-03-03 17:44:00,
2013-03-03 10:49:00,36.9,26.6,29.19,SW,225,1.1,1.1,66,0.00,CLR,,0.00,WeatherDisplay:10.37,2013-03-03 17:49:00,
2013-03-03 10:54:00,36.3,26.4,29.19,SSW,202,1.1,1.1,67,0.00,CLR,,0.00,WeatherDisplay:10.37,2013-03-03 17:54:00,
2013-03-03 10:59:00,36.1,27.6,29.19,SW,225,2.3,2.3,71,0.00,CLR,,0.00,WeatherDisplay:10.37,2013-03-03 17:59:00,
2013-03-03 11:04:00,36.0,27.1,29.19,SE,135,2.3,2.3,70,0.00,CLR,,0.00,WeatherDisplay:10.37,2013-03-03 18:04:00,
2013-03-03 11:09:00,35.6,26.4,29.19,WSW,248,4.6,4.6,69,0.00,CLR,,0.00,WeatherDisplay:10.37,2013-03-03 18:09:00,
2013-03-03 11:14:00,35.4,25.5,29.19,SSW,202,4.6,4.6,67,0.00,CLR,,0.00,WeatherDisplay:10.37,2013-03-03 18:14:00,
2013-03-03 11:19:00,35.4,25.5,29.19,SSE,158,4.6,4.6,67,0.00,CLR,,0.00,WeatherDisplay:10.37,2013-03-03 18:19:00,
2013-03-03 11:24:00,35.1,25.2,29.19,NE,45,5.8,5.8,67,0.00,CLR,,0.00,WeatherDisplay:10.37,2013-03-03 18:24:00,
2013-03-03 11:29:00,34.7,24.1,29.20,SSW,202,6.6,6.6,65,0.00,CLR,,0.00,WeatherDisplay:10.37,2013-03-03 18:29:00,
2013-03-03 11:34:00,34.7,24.5,29.20,SW,225,4.6,4.6,66,0.00,CLR,,0.00,WeatherDisplay:10.37,2013-03-03 18:34:00,
2013-03-03 11:39:00,34.3,24.5,29.20,SSE,158,2.3,2.5,67,0.00,CLR,,0.00,WeatherDisplay:10.37,2013-03-03 18:39:00,
2013-03-03 11:44:00,34.3,24.2,29.20,SW,225,2.3,2.3,66,0.00,CLR,,0.00,WeatherDisplay:10.37,2013-03-03 18:44:00,
2013-03-03 11:49:00,34.2,24.0,29.21,SW,225,2.3,2.3,66,0.00,CLR,,0.00,WeatherDisplay:10.37,2013-03-03 18:49:00,
2013-03-03 11:54:00,34.2,24.0,29.21,SE,135,3.5,3.5,66,0.00,CLR,,0.00,WeatherDisplay:10.37,2013-03-03 18:54:00,
2013-03-03 11:59:00,34.2,24.0,29.21,SE,135,2.3,2.3,66,0.00,CLR,,0.00,WeatherDisplay:10.37,2013-03-03 18:59:00,
2013-03-03 12:04:00,34.0,23.8,29.21,ENE,68,3.5,3.5,66,0.00,CLR,,0.00,WeatherDisplay:10.37,2013-03-03 19:04:00,
2013-03-03 12:09:00,34.0,23.8,29.22,ENE,68,3.9,3.9,66,0.00,CLR,,0.00,WeatherDisplay:10.37,2013-03-03 19:09:00,
2013-03-03 12:14:00,33.4,23.7,29.22,SSE,158,3.5,3.5,67,0.00,CLR,,0.00,WeatherDisplay:10.37,2013-03-03 19:14:00,
2013-03-03 12:19:00,33.4,23.3,29.22,SSE,158,2.3,2.3,66,0.00,CLR,,0.00,WeatherDisplay:10.37,2013-03-03 19:19:00,
2013-03-03 12:24:00,33.4,23.3,29.22,SE,135,6.1,6.1,66,0.00,CLR,,0.00,WeatherDisplay:10.37,2013-03-03 19:24:00,
2013-03-03 12:29:00,33.4,22.6,29.23,SSW,202,0.0,2.0,64,0.00,CLR,,0.00,WeatherDisplay:10.37,2013-03-03 19:29:00,
2013-03-03 12:34:00,34.0,23.1,29.23,North,0,0.0,1.1,64,0.00,CLR,,0.00,WeatherDisplay:10.37,2013-03-03 19:34:00,
2013-03-03 12:39:00,34.3,23.4,29.23,West,270,0.0,0.1,64,0.00,CLR,,0.00,WeatherDisplay:10.37,2013-03-03 19:39:00,
2013-03-03 12:44:00,34.9,23.9,29.23,NE,45,0.0,0.0,64,0.00,CLR,,0.00,WeatherDisplay:10.37,2013-03-03 19:44:00,
2013-03-03 12:49:00,35.4,24.4,29.25,SSW,202,0.0,0.0,64,0.00,CLR,,0.00,WeatherDisplay:10.37,2013-03-03 19:49:00,
2013-03-03 12:54:00,35.4,24.1,29.25,North,0,0.0,0.3,63,0.00,CLR,,0.00,WeatherDisplay:10.37,2013-03-03 19:54:00,
2013-03-03 12:59:00,35.8,24.0,29.25,SW,225,0.0,0.3,62,0.00,CLR,,0.00,WeatherDisplay:10.37,2013-03-03 19:59:00,
2013-03-03 13:04:00,36.0,24.2,29.25,ENE,68,0.0,0.1,62,0.00,CLR,,0.00,WeatherDisplay:10.37,2013-03-03 20:04:00,
2013-03-03 13:09:00,36.9,24.7,29.25,NE,45,2.3,2.3,61,0.00,CLR,,0.00,WeatherDisplay:10.37,2013-03-03 20:09:00,
2013-03-03 13:14:00,37.2,24.2,29.25,ENE,68,2.3,2.3,59,0.00,CLR,,0.00,WeatherDisplay:10.37,2013-03-03 20:14:00,
2013-03-03 13:19:00,37.6,22.0,29.25,SE,135,6.9,6.9,53,0.00,CLR,,0.00,WeatherDisplay:10.37,2013-03-03 20:19:00,
2013-03-03 13:24:00,37.6,21.5,29.25,SSW,202,5.8,5.8,52,0.00,CLR,,0.00,WeatherDisplay:10.37,2013-03-03 20:24:00,
2013-03-03 13:30:00,37.2,19.3,29.25,NE,45,8.1,8.1,48,0.00,CLR,,0.00,WeatherDisplay:10.37,2013-03-03 20:30:00,
2013-03-03 13:35:00,37.0,18.7,29.25,East,90,4.6,4.6,47,0.00,CLR,,0.00,WeatherDisplay:10.37,2013-03-03 20:35:00,
2013-03-03 13:40:00,37.0,18.1,29.25,SSW,202,10.4,10.4,46,0.00,CLR,,0.00,WeatherDisplay:10.37,2013-03-03 20:40:00,
2013-03-03 13:45:00,36.9,17.5,29.25,NE,45,5.8,5.8,45,0.00,CLR,,0.00,WeatherDisplay:10.37,2013-03-03 20:45:00,
2013-03-03 13:50:00,36.9,17.0,29.24,ENE,68,13.8,13.8,44,0.00,CLR,,0.00,WeatherDisplay:10.37,2013-03-03 20:50:00,
2013-03-03 13:55:00,36.3,13.7,29.24,SSW,202,13.8,13.8,39,0.00,CLR,,0.00,WeatherDisplay:10.37,2013-03-03 20:55:00,
2013-03-03 14:00:00,36.3,14.8,29.24,ESE,112,3.9,5.3,41,0.00,CLR,,0.00,WeatherDisplay:10.37,2013-03-03 21:00:00,
2013-03-03 14:05:00,36.0,13.9,29.24,NNW,338,9.2,9.2,40,0.00,CLR,,0.00,WeatherDisplay:10.37,2013-03-03 21:05:00,
2013-03-03 14:10:00,35.8,15.4,29.25,SSW,202,1.1,2.9,43,0.00,CLR,,0.00,WeatherDisplay:10.37,2013-03-03 21:10:00,
2013-03-03 14:15:00,35.8,16.0,29.25,WSW,248,4.4,4.4,44,0.00,CLR,,0.00,WeatherDisplay:10.37,2013-03-03 21:15:00,
2013-03-03 14:20:00,35.8,14.3,29.25,SSW,202,9.2,9.2,41,0.00,CLR,,0.00,WeatherDisplay:10.37,2013-03-03 21:20:00,
2013-03-03 14:25:00,35.6,15.3,29.25,ENE,68,4.3,4.3,43,0.00,CLR,,0.00,WeatherDisplay:10.37,2013-03-03 21:25:00,
2013-03-03 14:30:00,35.6,15.3,29.24,NNE,22,5.8,5.8,43,0.00,CLR,,0.00,WeatherDisplay:10.37,2013-03-03 21:30:00,
2013-03-03 14:35:00,35.8,15.4,29.24,North,0,10.4,10.4,43,0.00,CLR,,0.00,WeatherDisplay:10.37,2013-03-03 21:35:00,
2013-03-03 14:40:00,35.8,15.4,29.24,SSE,158,5.8,5.8,43,0.00,CLR,,0.00,WeatherDisplay:10.37,2013-03-03 21:40:00,
2013-03-03 14:45:00,35.6,14.7,29.24,WSW,248,2.3,3.8,42,0.00,CLR,,0.00,WeatherDisplay:10.37,2013-03-03 21:45:00,
2013-03-03 14:50:00,35.8,14.9,29.25,SSE,158,8.3,8.3,42,0.00,CLR,,0.00,WeatherDisplay:10.37,2013-03-03 21:50:00,
2013-03-03 14:55:00,35.8,15.4,29.25,WNW,292,12.7,12.7,43,0.00,CLR,,0.00,WeatherDisplay:10.37,2013-03-03 21:55:00,
2013-03-03 15:00:00,35.6,14.7,29.25,NNW,338,5.8,5.8,42,0.00,CLR,,0.00,WeatherDisplay:10.37,2013-03-03 22:00:00,
2013-03-03 15:05:00,35.6,15.3,29.25,ENE,68,0.0,2.5,43,0.00,CLR,,0.00,WeatherDisplay:10.37,2013-03-03 22:05:00,
2013-03-03 15:10:00,35.4,15.1,29.24,SSW,202,4.6,4.6,43,0.00,CLR,,0.00,WeatherDisplay:10.37,2013-03-03 22:10:00,
2013-03-03 15:15:00,35.6,14.7,29.24,SE,135,5.8,5.8,42,0.00,CLR,,0.00,WeatherDisplay:10.37,2013-03-03 22:15:00,
2013-03-03 15:20:00,35.4,14.6,29.24,SSE,158,6.9,6.9,42,0.00,CLR,,0.00,WeatherDisplay:10.37,2013-03-03 22:20:00,
2013-03-03 15:25:00,35.4,15.1,29.24,WNW,292,11.5,11.5,43,0.00,CLR,,0.00,WeatherDisplay:10.37,2013-03-03 22:25:00,
2013-03-03 15:30:00,35.6,15.3,29.26,NNW,338,3.5,3.5,43,0.00,CLR,,0.00,WeatherDisplay:10.37,2013-03-03 22:30:00,
2013-03-03 15:35:00,35.4,15.6,29.26,SW,225,13.0,13.0,44,0.00,CLR,,0.00,WeatherDisplay:10.37,2013-03-03 22:35:00,
2013-03-03 15:40:00,35.2,14.9,29.26,SSE,158,8.1,8.1,43,0.00,CLR,,0.00,WeatherDisplay:10.37,2013-03-03 22:40:00,
2013-03-03 15:45:00,35.4,15.1,29.26,SSW,202,8.1,8.1,43,0.00,CLR,,0.00,WeatherDisplay:10.37,2013-03-03 22:45:00,
2013-03-03 15:50:00,35.4,15.6,29.26,NE,45,2.4,3.8,44,0.00,CLR,,0.00,WeatherDisplay:10.37,2013-03-03 22:50:00,
2013-03-03 15:55:00,35.8,16.5,29.26,NE,45,2.3,2.3,45,0.00,CLR,,0.00,WeatherDisplay:10.37,2013-03-03 22:55:00,
2013-03-03 16:00:00,35.8,15.4,29.26,North,0,6.9,6.9,43,0.00,CLR,,0.00,WeatherDisplay:10.37,2013-03-03 23:00:00,
2013-03-03 16:05:00,36.1,15.8,29.26,SE,135,6.9,6.9,43,0.00,CLR,,0.00,WeatherDisplay:10.37,2013-03-03 23:05:00,
2013-03-03 16:10:00,36.3,15.9,29.28,WSW,248,0.0,2.9,43,0.00,CLR,,0.00,WeatherDisplay:10.37,2013-03-03 23:10:00,
2013-03-03 16:15:00,36.5,15.6,29.28,NW,315,4.6,4.6,42,0.00,CLR,,0.00,WeatherDisplay:10.37,2013-03-03 23:15:00,
2013-03-03 16:20:00,36.5,15.0,29.28,WSW,248,2.3,2.3,41,0.00,CLR,,0.00,WeatherDisplay:10.37,2013-03-03 23:20:00,
2013-03-03 16:25:00,36.9,15.9,29.28,SSE,158,3.5,3.5,42,0.00,CLR,,0.00,WeatherDisplay:10.37,2013-03-03 23:25:00,
2013-03-03 16:30:00,37.0,16.0,29.30,NNE,22,2.3,2.3,42,0.00,CLR,,0.00,WeatherDisplay:10.37,2013-03-03 23:30:00,
2013-03-03 16:35:00,37.4,16.9,29.30,SSE,158,2.3,2.3,43,0.00,CLR,,0.00,WeatherDisplay:10.37,2013-03-03 23:35:00,
2013-03-03 16:40:00,37.6,17.6,29.30,SE,135,4.6,4.6,44,0.00,CLR,,0.00,WeatherDisplay:10.37,2013-03-03 23:40:00,
2013-03-03 16:45:00,37.9,17.9,29.30,SE,135,8.1,8.1,44,0.00,CLR,,0.00,WeatherDisplay:10.37,2013-03-03 23:45:00,
2013-03-03 16:50:00,38.3,17.7,29.31,WSW,248,4.7,4.7,43,0.00,CLR,,0.00,WeatherDisplay:10.37,2013-03-03 23:50:00,
2013-03-03 16:55:00,37.6,15.4,29.31,South,180,11.5,11.5,40,0.00,CLR,,0.00,WeatherDisplay:10.37,2013-03-03 23:55:00,
2013-03-03 17:00:00,37.6,16.0,29.31,SSW,202,5.8,5.8,41,0.00,CLR,,0.00,WeatherDisplay:10.37,2013-03-04 00:00:00,
2013-03-03 17:05:00,37.0,15.5,29.31,ESE,112,4.6,4.6,41,0.00,CLR,,0.00,WeatherDisplay:10.37,2013-03-04 00:05:00,
2013-03-03 17:10:00,36.9,14.8,29.31,SW,225,3.5,3.5,40,0.00,CLR,,0.00,WeatherDisplay:10.37,2013-03-04 00:10:00,
2013-03-03 17:15:00,36.5,15.6,29.31,ESE,112,4.6,4.6,42,0.00,CLR,,0.00,WeatherDisplay:10.37,2013-03-04 00:15:00,
2013-03-03 17:20:00,36.3,15.9,29.31,WSW,248,0.0,1.7,43,0.00,CLR,,0.00,WeatherDisplay:10.37,2013-03-04 00:20:00,
2013-03-03 17:25:00,35.8,14.3,29.31,West,270,3.5,3.5,41,0.00,CLR,,0.00,WeatherDisplay:10.37,2013-03-04 00:25:00,
2013-03-03 17:30:00,35.8,14.9,29.28,ESE,112,6.9,6.9,42,0.00,CLR,,0.00,WeatherDisplay:10.37,2013-03-04 00:30:00,
2013-03-03 17:35:00,35.1,14.2,29.28,SW,225,2.3,2.9,42,0.00,CLR,,0.00,WeatherDisplay:10.37,2013-03-04 00:35:00,
2013-03-03 17:40:00,34.9,14.6,29.28,NW,315,0.0,2.2,43,0.00,CLR,,0.00,WeatherDisplay:10.37,2013-03-04 00:40:00,
2013-03-03 17:45:00,34.9,14.6,29.28,SE,135,6.9,6.9,43,0.00,CLR,,0.00,WeatherDisplay:10.37,2013-03-04 00:45:00,
2013-03-03 17:50:00,34.2,14.0,29.27,WSW,248,2.3,2.3,43,0.00,CLR,,0.00,WeatherDisplay:10.37,2013-03-04 00:50:00,
2013-03-03 17:55:00,34.0,13.8,29.27,ENE,68,4.6,4.6,43,0.00,CLR,,0.00,WeatherDisplay:10.37,2013-03-04 00:55:00,
2013-03-03 18:00:00,33.6,13.5,29.27,SSW,202,4.6,4.6,43,0.00,CLR,,0.00,WeatherDisplay:10.37,2013-03-04 01:00:00,
2013-03-03 18:05:00,33.4,13.3,29.27,SE,135,3.5,3.5,43,0.00,CLR,,0.00,WeatherDisplay:10.37,2013-03-04 01:05:00,
2013-03-03 18:10:00,33.3,13.7,29.28,East,90,6.9,6.9,44,0.00,CLR,,0.00,WeatherDisplay:10.37,2013-03-04 01:10:00,
2013-03-03 18:15:00,33.3,13.7,29.28,SSE,158,2.3,2.4,44,0.00,CLR,,0.00,WeatherDisplay:10.37,2013-03-04 01:15:00,
2013-03-03 18:20:00,32.9,13.3,29.28,SW,225,1.1,1.3,44,0.00,CLR,,0.00,WeatherDisplay:10.37,2013-03-04 01:20:00,
2013-03-03 18:25:00,32.7,13.2,29.28,WNW,292,1.1,1.1,44,0.00,CLR,,0.00,WeatherDisplay:10.37,2013-03-04 01:25:00,
2013-03-03 18:31:00,32.7,13.7,29.29,WSW,248,0.0,0.7,45,0.00,CLR,,0.00,WeatherDisplay:10.37,2013-03-04 01:31:00,
2013-03-03 18:36:00,32.5,13.5,29.29,SSW,202,1.1,1.1,45,0.00,CLR,,0.00,WeatherDisplay:10.37,2013-03-04 01:36:00,
2013-03-03 18:41:00,32.5,13.5,29.29,East,90,3.5,3.5,45,0.00,CLR,,0.00,WeatherDisplay:10.37,2013-03-04 01:41:00,
2013-03-03 18:46:00,32.5,14.0,29.29,SSE,158,1.1,1.5,46,0.00,CLR,,0.00,WeatherDisplay:10.37,2013-03-04 01:46:00,
2013-03-03 18:51:00,32.2,13.7,29.30,SE,135,2.3,2.3,46,0.00,CLR,,0.00,WeatherDisplay:10.37,2013-03-04 01:51:00,
2013-03-03 18:56:00,31.8,13.4,29.30,SW,225,0.0,1.1,46,0.00,CLR,,0.00,WeatherDisplay:10.37,2013-03-04 01:56:00,
2013-03-03 19:01:00,31.8,13.4,29.30,SE,135,2.3,2.3,46,0.00,CLR,,0.00,WeatherDisplay:10.37,2013-03-04 02:01:00,
2013-03-03 19:06:00,31.6,13.2,29.30,SE,135,2.3,2.3,46,0.00,CLR,,0.00,WeatherDisplay:10.37,2013-03-04 02:06:00,
2013-03-03 19:11:00,31.8,13.9,29.30,South,180,0.0,0.8,47,0.00,CLR,,0.00,WeatherDisplay:10.37,2013-03-04 02:11:00,
2013-03-03 19:16:00,31.8,13.9,29.30,SE,135,3.5,3.5,47,0.00,CLR,,0.00,WeatherDisplay:10.37,2013-03-04 02:16:00,
2013-03-03 19:21:00,31.5,13.5,29.30,ESE,112,0.0,1.7,47,0.00,CLR,,0.00,WeatherDisplay:10.37,2013-03-04 02:21:00,
2013-03-03 19:26:00,31.5,13.5,29.30,East,90,4.6,4.6,47,0.00,CLR,,0.00,WeatherDisplay:10.37,2013-03-04 02:26:00,
2013-03-03 19:31:00,31.3,13.4,29.31,ENE,68,4.6,4.6,47,0.00,CLR,,0.00,WeatherDisplay:10.37,2013-03-04 02:31:00,
2013-03-03 19:36:00,31.5,13.5,29.31,ESE,112,8.1,8.1,47,0.00,CLR,,0.00,WeatherDisplay:10.37,2013-03-04 02:36:00,
2013-03-03 19:41:00,31.1,13.7,29.31,SSW,202,0.0,2.0,48,0.00,CLR,,0.00,WeatherDisplay:10.37,2013-03-04 02:41:00,
2013-03-03 19:46:00,31.1,13.7,29.31,NNE,22,6.9,6.9,48,0.00,CLR,,0.00,WeatherDisplay:10.37,2013-03-04 02:46:00,
2013-03-03 19:51:00,31.1,13.7,29.33,SE,135,1.1,1.8,48,0.00,CLR,,0.00,WeatherDisplay:10.37,2013-03-04 02:51:00,
2013-03-03 19:56:00,31.1,13.7,29.33,SE,135,2.3,2.3,48,0.00,CLR,,0.00,WeatherDisplay:10.37,2013-03-04 02:56:00,
2013-03-03 20:01:00,31.1,13.7,29.33,SE,135,6.9,6.9,48,0.00,CLR,,0.00,WeatherDisplay:10.37,2013-03-04 03:01:00,
2013-03-03 20:06:00,31.1,13.7,29.33,SW,225,0.0,2.5,48,0.00,CLR,,0.00,WeatherDisplay:10.37,2013-03-04 03:06:00,
2013-03-03 20:11:00,31.1,13.7,29.33,East,90,6.9,6.9,48,0.00,CLR,,0.00,WeatherDisplay:10.37,2013-03-04 03:11:00,
2013-03-03 20:16:00,31.1,14.1,29.33,SW,225,4.6,4.6,49,0.00,CLR,,0.00,WeatherDisplay:10.37,2013-03-04 03:16:00,
2013-03-03 20:21:00,30.2,15.1,29.33,SE,135,2.3,4.3,53,0.00,CLR,,0.00,WeatherDisplay:10.37,2013-03-04 03:21:00,
2013-03-03 20:26:00,29.7,15.9,29.33,SSE,158,10.4,10.4,56,0.00,CLR,,0.00,WeatherDisplay:10.37,2013-03-04 03:26:00,
2013-03-03 20:31:00,28.2,18.0,29.37,SW,225,15.0,15.0,65,0.00,CLR,,0.00,WeatherDisplay:10.37,2013-03-04 03:31:00,
2013-03-03 20:37:00,27.5,19.7,29.37,South,180,3.5,5.4,72,0.00,CLR,,0.00,WeatherDisplay:10.37,2013-03-04 03:37:00,
2013-03-03 20:42:00,26.8,21.7,29.37,SSW,202,9.2,9.2,81,0.00,CLR,,0.00,WeatherDisplay:10.37,2013-03-04 03:42:00,
2013-03-03 20:47:00,25.7,21.0,29.39,WNW,292,5.8,5.8,82,0.00,CLR,,0.00,WeatherDisplay:10.37,2013-03-04 03:47:00,
2013-03-03 20:52:00,25.3,20.3,29.39,ESE,112,10.4,10.4,81,0.00,CLR,,0.00,WeatherDisplay:10.37,2013-03-04 03:52:00,
2013-03-03 20:57:00,24.6,19.6,29.39,SE,135,0.0,3.5,81,0.00,CLR,,0.00,WeatherDisplay:10.37,2013-03-04 03:57:00,
2013-03-03 21:02:00,24.3,19.3,29.39,West,270,1.1,2.0,81,0.00,CLR,,0.00,WeatherDisplay:10.37,2013-03-04 04:02:00,
2013-03-03 21:07:00,23.9,19.2,29.40,WSW,248,3.5,3.5,82,0.00,CLR,,0.00,WeatherDisplay:10.37,2013-03-04 04:07:00,
2013-03-03 21:12:00,23.9,19.2,29.40,SSE,158,5.8,5.8,82,0.00,CLR,,0.00,WeatherDisplay:10.37,2013-03-04 04:12:00,
2013-03-03 21:17:00,23.5,18.9,29.40,South,180,2.6,2.6,82,0.00,CLR,,0.00,WeatherDisplay:10.37,2013-03-04 04:17:00,
2013-03-03 21:22:00,23.5,18.9,29.40,SSW,202,2.3,2.3,82,0.00,CLR,,0.00,WeatherDisplay:10.37,2013-03-04 04:22:00,
2013-03-03 21:27:00,23.2,18.5,29.41,West,270,2.3,2.3,82,0.00,CLR,,0.00,WeatherDisplay:10.37,2013-03-04 04:27:00,
2013-03-03 21:32:00,23.2,18.5,29.41,SSE,158,2.3,2.3,82,0.00,CLR,,0.00,WeatherDisplay:10.37,2013-03-04 04:32:00,
2013-03-03 21:37:00,23.0,18.3,29.41,SSW,202,0.0,1.0,82,0.00,CLR,,0.00,WeatherDisplay:10.37,2013-03-04 04:37:00,
2013-03-03 21:42:00,23.2,18.5,29.41,North,0,2.3,2.3,82,0.00,CLR,,0.00,WeatherDisplay:10.37,2013-03-04 04:42:00,
2013-03-03 23:55:00,22.5,17.5,29.44,WSW,248,4.6,4.6,81,0.00,CLR,,0.00,WeatherDisplay:10.37,2013-03-04 06:55:00,
2013-03-03 23:56:00,22.5,17.5,29.44,WSW,248,4.6,4.6,81,0.00,CLR,,0.00,WeatherDisplay:10.37,2013-03-04 06:56:00,
2013-03-03 23:57:00,22.5,17.5,29.44,WSW,248,1.1,1.1,81,0.00,CLR,,0.00,WeatherDisplay:10.37,2013-03-04 06:57:00,